{"data":{"norad_id":48019,"intl_designator":"2021-024AU","name":"STARLINK-2285","alt_names":[],"object_type":"PAYLOAD","status":"ACTIVE","operator":null,"country":"US","launch_date":"2021-03-24","launch_site_code":"AFETR","launch_vehicle":null,"mission":null,"orbit_class":"UNKNOWN","rcs_meters":null,"size_class":null,"mass_kg":null,"dimensions":null,"purposes":["comms"],"wikipedia_slug":null,"has_3d_model":false,"image_url":null,"decayed_at":null,"tle_current":{"epoch":"2026-05-24T21:05:15.798048Z","epoch_age_seconds":81645,"freshness":"FRESH","line1":"1 48019U 21024AU  26144.87865507  .00003895  00000+0  13713-3 0  9996","line2":"2 48019  53.1600 312.5140 0000971  82.0230 278.0881 15.31718207286596","mean_motion":15.31718207,"eccentricity":9.71e-5,"inclination_deg":53.16,"raan_deg":312.514,"arg_perigee_deg":82.023,"mean_anomaly_deg":278.0881,"bstar":0.00013713,"rev_number":28659,"period_min":94.012070459119,"perigee_km":470.02070095741,"apogee_km":471.35074232995,"semimajor_km":6848.8227216437,"source":"CELESTRAK","updated_at":"2026-05-25T13:38:16.639918Z"}}}